Regional Weather Roundup
Issued by NWS Little Rock, AR

Home | Current Version | Previous Version | Text Only | Print | Product List | Glossary Off
Versions: 1 2 3 4 5 6 7 8 9 10 11 12 13 14 15 16 17 18 19 20 21 22 23 24 25 26 27

000
ASUS44 KLZK 272105
RWRLZK

WEATHER ROUNDUP FOR ARKANSAS
NATIONAL WEATHER SERVICE LITTLE ROCK AR
400 PM CDT WED JUL 27 2016

NOTE: "FAIR" INDICATES FEW OR NO CLOUDS BELOW 12,000 FEET WITH NO
SIGNIFICANT WEATHER AND/OR OBSTRUCTIONS TO VISIBILITY.

ARZ001-003-010-029-272200-
NORTHWEST ARKANSAS

CITY           SKY/WX    TMP DP  RH WIND       PRES   REMARKS
FAYETTEVILLE   CLOUDY    79  75  87 VRB3      29.96F
FORT SMITH     CLOUDY    87  72  60 SE5       29.91S HX  93
HARRISON       CLOUDY    87  75  67 NW6       29.95F HX  96
BENTONVILLE    CLOUDY    86  72  62 S5        29.96F HX  92
ROGERS         CLOUDY    86  74  67 MISG      29.97F HX  94
SILOAM SPGS    MOSUNNY   84  68  58 CALM      29.97F HX  87
HIGHFILL       CLOUDY    86  77  74 SW6       29.95F HX  97
SPRINGDALE     PTSUNNY   81  79  94 SW5       29.98F HX  89
$$

ARZ004-005-016-272200-
NORTH CENTRAL ARKANSAS

CITY           SKY/WX    TMP DP  RH WIND       PRES   REMARKS
BATESVILLE     CLOUDY    81  73  78 E17       29.95R THUNDER HX  85
FLIPPIN        MOSUNNY   91  70  49 CALM      29.90F HX  97
MTN HOME       MOSUNNY   89  73  59 CALM      29.92S HX  97
$$

ARZ040-041-272200-
WEST CENTRAL ARKANSAS

CITY           SKY/WX    TMP DP  RH WIND       PRES   REMARKS
MENA             N/A     77  77 100 MISG        N/A
MOUNT IDA      LGT RAIN  76  75  97 CALM      29.93F
$$

ARZ009-017-025-026-028-272200-
NORTHEAST ARKANSAS

CITY           SKY/WX    TMP DP  RH WIND       PRES   REMARKS
CORNING          N/A     90  75  62 E6        29.90S HX 100
JONESBORO      RAIN      79  75  87 SW5       29.92R
NEWPORT        TSTM      76  76 100 CALM      29.94S
WALNUT RIDGE   CLOUDY    90  75  62 NE7       29.88S HX 100
BLYTHEVILLE    CLOUDY    89  75  63 S5        29.90R HX  99
$$

ARZ022-023-033-042-044-272200-
CENTRAL ARKANSAS

CITY           SKY/WX    TMP DP  RH WIND       PRES   REMARKS
LITTLE ROCK    TSTM      77  73  87 SE6       29.93F
N LITTLE ROCK    N/A     76  74  92 S3        29.90S
JACKSONVILLE   LGT RAIN  76  76  99 E5        29.93S
SEARCY         TSTM      75  73  94 S3        29.97R FOG
HOT SPRINGS    TSTM      77  74  90 E7        29.96R FOG
RUSSELLVILLE   HVY RAIN  80  76  87 W6        29.91R FOG     HX  86
$$

ARZ036-272200-
EAST ARKANSAS

CITY           SKY/WX    TMP DP  RH WIND       PRES   REMARKS
WEST MEMPHIS   CLOUDY    80  78  94 CALM      29.90S HX  88
$$

ARZ050-053-066-070-073-272200-
SOUTHWEST ARKANSAS

CITY           SKY/WX    TMP DP  RH WIND       PRES   REMARKS
ARKADELPHIA    FAIR      82  76  81 SW6       29.93S HX  89
CAMDEN         CLOUDY    86  72  62 CALM      29.92F HX  92
TEXARKANA      CLOUDY    81  68  64 N15G23    29.95R
EL DORADO      MOSUNNY   88  71  57 SE5       29.93F HX  94
DE QUEEN       CLOUDY    79  76  90 S5        29.92F
$$

ARZ056-057-069-272200-
SOUTHEAST ARKANSAS

CITY           SKY/WX    TMP DP  RH WIND       PRES   REMARKS
PINE BLUFF     CLOUDY    81  73  76 N17G24    29.91R HX  86
STUTTGART      CLOUDY    75  70  83 NW8       29.93R THUNDER
MONTICELLO     CLOUDY    87  74  64 CALM      29.90S HX  95

$$






USA.gov is the U.S. government's official web portal to all federal, state and local government web resources and services.